Weather History for KPNE - November, 2010

Change the Weather History Date:

Saturday, November 20, 2010

  Actual Average Record
Temperature  
Mean Temperature 46 °F -  
Max Temperature 54 °F 51 °F - (-1)
Min Temperature 37 °F 34 °F - (-1)
Degree Days  
Heating Degree Days 20    
Moisture  
Dew Point 35 °F    
Average Humidity 67    
Maximum Humidity 83    
Minimum Humidity 54    
Precipitation  
Precipitation 0.00 in - - ()
Sea Level Pressure  
Sea Level Pressure 30.21 in    
Wind  
Wind Speed 6 mph (West)    
Max Wind Speed 18 mph    
Max Gust Speed 29 mph    
Visibility 10 miles    
Events      
Averages and records for this station are not official NWS values.
T = Trace of Precipitation, MM = Missing Value Source: NWS Daily Summary

Daily Weather History Graph

Daily Weather History Graph

Search for Another Location

Airport or City:

Trip Planner

Search our weather history database for the weather conditions in past years. The results will help you decide how hot, cold, wet, or windy it might be!

Date:

Astronomy

Nov. 20, 2010 Rise Set
Actual Time 6:51 AM EST 4:39 PM EST
Civil Twilight 6:21 AM EST 5:09 PM EST
Nautical Twilight 5:48 AM EST 5:42 PM EST
Astronomical Twilight 5:16 AM EST 6:14 PM EST
Moon 3:45 PM EST (11/20) 5:47 AM EST (11/20)
Length of Visible Light 10h 47m
Length of Day
9h 48m
Waxing Gibbous, 99% of the Moon is Illuminated
Nov 20
Waxing Gibbous
Nov 21
Full
Nov 28
Last Quarter
Dec 5
New
Dec 13
First Quarter

Hourly Weather History & Observations

Time (EST) Temp. Windchill Dew Point Humidity Pressure Visibility Wind Dir Wind Speed Gust Speed Precip Events Conditions
12:54 AM 37.9 °F 35.5 °F 28.9 °F 70% 30.22 in 10.0 mi South 3.5 mph - N/A   Clear
1:54 AM 37.0 °F - 28.9 °F 73% 30.21 in 10.0 mi Calm Calm - N/A   Clear
2:54 AM 37.9 °F - 30.0 °F 73% 30.19 in 10.0 mi Calm Calm - N/A   Clear
3:54 AM 39.0 °F 35.7 °F 32.0 °F 76% 30.17 in 10.0 mi SSW 4.6 mph - N/A   Clear
4:54 AM 39.9 °F 36.7 °F 34.0 °F 79% 30.16 in 10.0 mi SW 4.6 mph - N/A   Clear
5:54 AM 39.9 °F 37.8 °F 34.0 °F 79% 30.16 in 10.0 mi SW 3.5 mph - N/A   Clear
6:54 AM 39.9 °F 35.8 °F 35.1 °F 83% 30.17 in 10.0 mi WSW 5.8 mph - N/A   Clear
7:54 AM 42.1 °F 38.4 °F 37.0 °F 82% 30.18 in 10.0 mi WSW 5.8 mph - N/A   Clear
8:54 AM 46.9 °F - 36.0 °F 66% 30.18 in 10.0 mi WSW 8.1 mph - N/A   Clear
9:54 AM 51.1 °F - 37.0 °F 59% 30.19 in 10.0 mi WSW 8.1 mph - N/A   Clear
10:54 AM 53.1 °F - 37.9 °F 57% 30.19 in 10.0 mi WNW 13.8 mph 23.0 mph N/A   Clear
11:54 AM 53.1 °F - 37.0 °F 55% 30.18 in 10.0 mi West 13.8 mph - N/A   Scattered Clouds
12:54 PM 54.0 °F - 37.9 °F 55% 30.16 in 10.0 mi West 18.4 mph 28.8 mph N/A   Clear
1:54 PM 53.1 °F - 37.0 °F 55% 30.16 in 10.0 mi West 17.3 mph 27.6 mph N/A   Clear
2:54 PM 53.6 °F - 37.4 °F 54% 30.16 in 10.0 mi West 18.4 mph 24.2 mph N/A   Clear
3:54 PM 53.1 °F - 37.9 °F 57% 30.18 in 10.0 mi West 11.5 mph - N/A   Clear
4:54 PM 52.0 °F - 37.9 °F 59% 30.19 in 10.0 mi West 9.2 mph - N/A   Clear
5:54 PM 50.0 °F - 37.9 °F 63% 30.22 in 10.0 mi West 9.2 mph - N/A   Clear
6:54 PM 48.9 °F - 37.0 °F 64% 30.24 in 10.0 mi West 6.9 mph - N/A   Clear
7:54 PM 46.0 °F 42.5 °F 37.0 °F 71% 30.26 in 10.0 mi West 6.9 mph - N/A   Clear
8:54 PM 48.0 °F - 37.0 °F 66% 30.29 in 10.0 mi WNW 4.6 mph - N/A   Clear
9:54 PM 46.0 °F 43.9 °F 36.0 °F 68% 30.31 in 9.0 mi NW 4.6 mph - N/A   Clear
10:54 PM 44.1 °F 39.5 °F 36.0 °F 73% 30.33 in 10.0 mi NW 8.1 mph - N/A   Clear
11:54 PM 43.0 °F 38.2 °F 35.1 °F 74% 30.35 in 10.0 mi NNW 8.1 mph - N/A   Clear